Location: Boffles
(50.2545°N, 2.2037°E)
Time: 20:13:11
(UTC+00:00)

Daily predictions for brighter satellites

Satellite Brightness Start Highest point End
(mag) Time Altitude Azimuth Time Altitude Azimuth Time Altitude Azimuth
Cosmos 1898 Rocket 4.2 18:09:37 10° SW 18:14:44 59° WNW 18:19:54 10° NNE
Meteor 2-9 Rocket 4.4 18:11:05 10° SSW 18:16:55 86° WNW 18:22:40 10° NNE
Cosmos 1300 Rocket 3.9 18:16:09 10° SSE 18:20:19 42° E 18:24:31 10° NNE
Okean 1 Rocket 4.5 18:20:43 10° SE 18:23:47 18° E 18:26:52 10° NE
CENTAUR R/B 3.2 18:16:25 10° NW 18:24:18 74° NE 18:33:04 10° SE
Sich 1 Rocket 3.6 18:20:06 10° S 18:24:36 72° E 18:29:11 10° NNE
NOSS 2-2 (E) 3.4 18:21:27 10° SW 18:25:01 76° NW 18:29:12 10° NE
Cosmos 1833 Rocket 4.0 18:21:04 10° NNW 18:25:38 24° NE 18:30:11 10° E
Cosmos 2298 Rocket 4.2 18:21:33 10° S 18:26:40 50° ESE 18:31:49 10° NNE
Cosmos 1975 4.0 18:23:55 10° SSW 18:27:53 50° WNW 18:31:52 10° N
Resurs 01 Rocket 3.7 18:27:02 10° ENE 18:27:59 11° NE 18:28:56 10° NE
Iridium 4 Rocket 4.1 18:23:52 10° SSW 18:29:04 67° W 18:34:46 10° N
CSL-04 Debris 4.1 18:25:50 10° SSE 18:31:12 76° ENE 18:36:37 10° NNW
Helios 1A Rocket 4.4 18:29:07 10° S 18:33:02 42° W 18:37:01 10° NNW
CSL-04 Rocket 3.7 18:27:43 10° SSE 18:33:10 76° ENE 18:38:43 10° NNW
Cosmos 1025 Rocket 3.0 18:29:11 10° N 18:33:35 69° ENE 18:37:58 10° SSE
ATLAS 2AS CENTAUR R/B 3.8 18:28:22 10° SSE 18:34:47 28° ESE 18:41:11 10° ENE
Okean 2 Rocket 3.1 18:30:25 10° S 18:34:49 60° E 18:39:14 10° NNE
NOSS 2-2 (D) 3.3 18:31:21 10° SW 18:34:52 77° NW 18:38:58 10° NE
Cosmos 1937 Rocket 4.3 18:29:45 10° SW 18:34:53 55° WNW 18:40:01 10° NNE
YAOGAN 1 2.8 18:31:25 10° S 18:35:44 74° WSW 18:40:05 10° NNW
ATLAS 3B R/B 3.3 18:30:07 10° NW 18:36:32 42° NNE 18:42:35 12° E
SKYMED 2 4.4 18:33:13 10° N 18:37:30 55° WNW 18:41:44 10° SSW
SWAS 4.4 18:35:03 10° NNW 18:39:22 80° ENE 18:43:39 10° SE
Abrixas rocket 2.6 18:37:19 10° W 18:40:02 42° SSW 18:42:11 14° SE
CREW DRAGON DEMO-1 DEB 3.1 18:38:54 10° WNW 18:41:54 58° SSW 18:44:16 15° SE
Cosmos 1513 Rocket 4.4 18:36:14 10° S 18:42:26 74° E 18:48:34 10° NNE
Cosmos 1536 Rocket 3.6 18:38:55 10° N 18:43:22 66° ENE 18:47:49 10° SSE
Cosmos 1125 Rocket 3.8 18:42:15 10° S 18:47:18 47° ESE 18:52:25 10° NNE
SJ-6B 3.6 18:48:31 15° ESE 18:51:03 30° ENE 18:54:26 10° N
CZ-4 R/B 2.9 18:49:26 10° S 18:53:25 41° W 18:57:22 10° NNW
USA 238 DEB 4.2 18:46:30 10° NW 18:53:38 66° SW 19:01:01 10° SSE
USA 238 4.2 18:46:37 10° NW 18:53:44 66° SW 19:01:08 10° SSE
Cosmos 2150 Rocket 4.0 18:48:49 10° SSW 18:54:12 76° ESE 18:59:41 10° NNE
SJ-11-01 4.4 18:49:41 10° SSE 18:54:24 81° WSW 18:59:07 10° NNW
CZ-2C R/B 3.6 18:50:07 10° S 18:55:30 70° WSW 19:01:12 10° NNW
Cosmos 1674 2.7 18:51:57 10° N 18:55:46 58° ENE 18:59:33 10° SSE
Cosmos 1464 Rocket 4.0 18:49:38 10° S 18:55:47 87° E 19:02:02 10° N
Cosmos 2026 Rocket 4.5 18:50:18 10° N 18:56:20 42° ENE 19:02:17 10° SE
Cosmos 1092 Rocket 4.1 18:50:36 10° N 18:56:38 52° ENE 19:02:39 10° SSE
Okean-O 4.4 18:53:15 10° SSW 18:57:19 35° W 19:01:25 10° NNW
Cosmos 2285 Rocket 4.2 18:52:02 10° S 18:58:04 49° ESE 19:04:10 10° NNE
MOS 1 Rocket 3.0 18:58:04 10° NNE 19:02:28 67° ESE 19:06:43 10° S
FREGAT/IRIS 3.1 19:04:41 30° ENE 19:04:45 30° ENE 19:07:06 10° N
ARGOS 3.2 19:05:42 10° SSE 19:11:04 84° WSW 19:16:30 10° NNW
CZ-2C R/B 3.0 19:07:19 10° NNE 19:12:39 44° E 19:17:59 10° S
Cosmos 1340 Rocket 3.7 19:15:11 27° E 19:15:11 27° E 19:18:28 10° NNE
Cosmos 1733 3.6 19:13:48 14° SSE 19:16:43 40° E 19:20:20 10° NNE
Cosmos 2151 Rocket 3.8 19:13:02 10° SSW 19:17:30 73° WNW 19:22:02 10° N
Lacrosse 5 rocket 2.6 19:14:02 10° WNW 19:18:05 36° N 19:20:43 19° ENE
MOS 1 4.3 19:13:05 11° SSE 19:18:30 67° ENE 19:24:11 10° NNW
Cosmos 2082 Rocket 3.1 19:13:55 10° NNW 19:18:55 31° NE 19:21:17 23° E
BREEZE-M DEB (TANK) 4.1 19:19:09 10° W 19:22:12 34° SSW 19:27:36 15° SE
DMSP B5D2-2 4.3 19:17:24 10° NNE 19:22:30 45° E 19:27:32 10° S
BREEZE-M R/B 4.0 19:12:52 10° WSW 19:23:03 56° SSE 19:24:25 33° ESE
Cosmos 494 Rocket 4.5 19:18:46 10° NNW 19:23:58 62° WSW 19:29:09 10° S
Meteor 1-15 Rocket 4.2 19:22:33 10° S 19:28:13 88° E 19:34:02 10° NNE
Cosmos 1805 3.1 19:24:41 10° S 19:28:35 77° E 19:32:31 10° NNE
OBJECT-B 1.2 19:28:48 42° ENE 19:28:48 42° ENE 19:31:50 10° N
Ariane Rocket 3.0 19:28:06 11° SSE 19:32:55 86° WSW 19:38:03 10° NNW
SL-08 RB Rocket 3.9 19:28:26 10° S 19:32:59 70° WSW 19:37:31 10° NNW
H-2A R/B 3.3 19:29:47 10° SSW 19:34:31 41° W 19:39:25 10° NNW
Cosmos 1269 Rocket 4.0 19:30:37 10° NNW 19:35:58 84° WSW 19:39:33 21° SSE
Cosmos 1626 1.9 19:37:22 10° N 19:41:05 82° E 19:42:02 48° SSE
Okean 1-7 Rocket 4.0 19:36:59 10° N 19:41:22 42° ENE 19:41:50 41° E
Terra 4.1 19:42:51 11° NE 19:42:51 11° NE 19:43:38 10° NE
MetOp-A 4.1 19:40:20 18° SSE 19:44:27 87° WSW 19:49:52 10° NNW
USA 186 2.8 19:42:34 20° SSW 19:44:31 44° W 19:47:42 10° NNW
COSMOS 2406 3.1 19:39:28 10° NNW 19:45:12 85° ENE 19:47:55 32° SSE
Cosmos 1455 Rocket 4.2 19:47:18 27° NE 19:47:18 27° NE 19:49:51 10° NNE
Cosmos 1844 Rocket 3.3 19:41:41 10° SW 19:47:10 56° NW 19:52:42 10° NNE
ISS -3.6 19:44:13 10° W 19:47:35 67° N 19:47:46 65° NNE
Cosmos 2278 Rocket 2.5 19:46:03 10° S 19:51:32 40° ESE 19:56:33 10° NE
Lacrosse 4 Rocket 1.7 19:48:50 10° NNW 19:52:47 46° NE 19:52:52 46° NE
Cosmos 1844 4.2 19:49:13 10° SW 19:54:49 61° NW 20:00:25 10° NNE
Meteor 2-5 Rocket 4.1 19:49:49 10° NNW 19:55:26 65° W 20:00:46 12° S
Meteor 1-22 Rocket 4.3 19:50:11 10° S 19:56:06 78° E 20:02:13 10° NNE
Meteor 1-24 Rocket 3.8 19:52:14 10° NNW 19:57:48 78° W 20:01:37 22° S
Cosmos 909 Rocket 4.2 19:51:16 10° NW 19:57:51 58° NE 19:59:55 40° E
Exosat Rocket 3.8 19:53:58 10° SW 19:59:11 67° WNW 20:04:14 10° NNE
Cosmos 2266 Rocket 4.4 19:54:15 10° N 19:59:55 40° ENE 20:00:34 38° E
SL-14 R/B 3.4 19:57:05 10° NNW 20:01:02 70° W 20:01:55 50° SSW
Okean 1 Rocket 3.7 19:56:51 10° SSW 20:01:16 56° WNW 20:05:42 10° N
Meteor 2-19 Rocket 4.4 19:55:52 10° N 20:01:57 63° ENE 20:03:47 44° SE
NOSS 3-4 (A) 3.3 19:56:17 10° SW 20:02:13 78° SE 20:08:37 10° NE
NOSS 3-4 (C) 3.3 19:56:24 10° SW 20:02:18 77° SE 20:08:43 10° NE
Resurs 01 Rocket 1.5 20:03:26 64° E 20:03:37 65° ENE 20:08:03 10° N
Cosmos 1833 Rocket 2.6 20:04:36 10° NNW 20:10:18 85° WSW 20:11:54 49° SSE
Cosmos 1766 4.3 20:06:40 10° SSW 20:10:27 46° WNW 20:14:18 10° N
CZ-2C R/B 4.3 20:06:47 10° NNE 20:09:58 42° NE 20:09:58 42° NE
Cosmos 2251 Rocket 3.5 20:07:51 10° NNW 20:13:13 64° ENE 20:13:44 60° E
CENTAUR R/B 4.2 20:07:26 10° NW 20:14:51 40° WSW 20:22:00 13° S
ERS-1 Rocket 4.2 20:17:39 27° NE 20:17:39 27° NE 20:21:09 10° N
ARIANE 5 R/B 3.2 20:20:05 45° NNE 20:20:05 45° NNE 20:23:25 10° N
SPOT 3 Rocket 3.7 20:20:50 46° S 20:22:18 70° WSW 20:27:29 10° NNW
Cosmos 1634 Rocket 4.3 20:18:30 10° SSW 20:24:37 65° WNW 20:30:49 10° N
ATLAS 2AS CENTAUR R/B 3.0 20:17:03 10° SW 20:25:03 89° NW 20:32:56 10° NE
Resurs 1-3 4.2 20:26:18 46° SW 20:27:02 52° W 20:31:21 10° NNW
Landsat 7 4.2 20:27:59 51° NNE 20:27:59 51° NNE 20:31:56 10° N
ATLAS 3B R/B 2.8 20:20:52 10° NW 20:27:41 70° SW 20:29:50 46° SSE
Cosmos 1892 Rocket 4.1 20:23:51 10° NNW 20:28:05 52° W 20:28:35 49° WSW
SPOT 5 4.1 20:33:48 33° NE 20:33:48 33° NE 20:37:43 10° N
Meteor 1-21 Rocket 4.2 20:27:22 10° N 20:33:09 69° ENE 20:33:15 68° E
Cosmos 1655 Rocket 3.9 20:30:24 10° N 20:36:43 87° E 20:37:50 63° SSE
Cosmos 1461 4.0 20:35:38 10° NNW 20:39:30 42° NNE 20:39:30 42° NNE
CZ-2C R/B 4.2 20:47:49 10° N 20:52:49 35° WNW 20:57:51 10° SW
Lacrosse 5 rocket 2.7 20:53:18 10° WNW 20:56:20 42° NW 20:56:20 42° NW
MetOp-B 4.4 20:58:51 64° W 20:58:51 64° W 21:04:05 10° NNW
Cosmos 2098 Rocket 4.1 20:54:22 10° NNW 21:01:06 64° W 21:01:45 60° SW
OBJECT-B 4.0 21:01:59 13° WNW 21:01:59 13° WNW 21:03:05 10° WNW
Cosmos 2082 Rocket 2.5 20:57:49 10° NW 21:03:08 58° WSW 21:03:08 58° WSW
Spot 2 Rocket 4.0 21:05:26 56° NW 21:05:26 56° NW 21:09:28 10° NNW
Terra 3.5 21:21:44 28° N 21:21:44 28° N 21:24:05 10° N
ATLAS CENTAUR R/B 4.3 21:27:07 10° NNW 21:27:26 11° NNW 21:27:26 11° NNW
Lacrosse 4 Rocket 4.0 21:27:56 10° WNW 21:29:10 16° WNW 21:29:10 16° WNW
Cosmos 2278 Rocket 3.3 21:33:01 28° W 21:35:22 42° NW 21:40:46 10° NNE
Resurs 01 Rocket 4.1 21:41:01 17° W 21:41:01 17° W 21:43:27 10° NW
ATLAS 2AS CENTAUR R/B 4.1 22:09:34 10° W 22:16:59 40° NNW 22:24:09 10° NE
NOSS 3-1 (C) 4.4 22:31:53 10° NW 22:37:24 56° NNW 22:37:24 56° NNW
CZ-4C R/B 4.3 22:45:17 23° NNE 22:45:17 23° NNE 22:47:59 10° NE
Cosmos 2297 Rocket 4.3 22:53:30 10° NNW 22:56:26 21° NNE 22:56:26 21° NNE
Cosmos 2369 Rocket 4.4 23:10:31 19° NNE 23:10:31 19° NNE 23:12:03 10° NNE
SL-16 R/B 4.3 23:50:37 24° NE 23:50:37 24° NE 23:54:44 10° N
